Flag for Dominican Republic Weather past 2 weeks in Santiago de los Caballeros, Dominican Republic

Now
90 °F

Passing clouds.


Feels Like: 91 °F
Forecast: N/A
Wind: 12 mph from Southeast

Location: Santiago

Current Time: Mar 28, 2015 at 6:32:23 PM

Latest Report: Mar 28, 2015 at 5:00 PM


Visibility: N/A

Pressure: 29.95 "Hg

Humidity: 43%

Dew point: 64 °F

Location of Santiago de los CaballerosLocation

Historic Weather in Santiago de los Caballeros — Graph

°F

Santiago de los Caballeros temperature yesterday

Maximum temperature yesterday: 88 °F (at 3:00 PM)
Minimum temperature yesterday: 70 °F (at 6:00 AM)
Average temperature yesterday: 79 °F

Past Weeks' High & Low Weather Summary

 TemperatureHumidityPressure
High90 °F (Mar 28, 4:00 PM)100% (Mar 14, 6:00 AM)30.12 "Hg (Mar 14, 6:00 AM)
Low63 °F (Mar 17, 7:00 AM)43% (Mar 28, 4:00 PM)29.86 "Hg (Mar 20, 8:00 AM)
Average76 °F78%30.01 "Hg
* Reported Mar 13 4:00 PM — Mar 28 4:00 PM, Santiago de los Caballeros, Weather by CustomWeather, © 2015

Note: Actual official high and low records may vary slightly from our data, if they occured in-between our weather recording intervals... More about our weather records

Advertising

Santiago de los Caballeros weather history for previous 24 hours

 ConditionsComfort  
Time TempWeatherWind HumidityBarometerVisibility
4:00 PM
Sat, Mar 28
90 °FPassing clouds.9 mph43%29.98 "HgN/A
3:00 PM88 °FPassing clouds.12 mph49%29.98 "HgN/A
2:00 PM86 °FPassing clouds.9 mph59%30.04 "HgN/A
1:00 PM86 °FPassing clouds.12 mph55%30.07 "HgN/A
12:00 PM82 °FScattered clouds.9 mph62%30.12 "HgN/A
11:00 AM81 °FScattered clouds.10 mph70%30.12 "HgN/A
10:00 AM79 °FScattered clouds.8 mph74%30.12 "HgN/A
9:00 AM75 °FFog.8 mph89%30.12 "Hg3 mi
8:00 AM72 °FFog.No wind94%30.09 "Hg3 mi
7:00 AM70 °FPartly sunny.5 mph94%30.07 "HgN/A
6:00 AM70 °FPassing clouds.No wind94%30.04 "HgN/A
5:00 AM70 °FPassing clouds.No wind94%30.01 "HgN/A
4:00 AM70 °FPassing clouds.No wind94%30.01 "HgN/A
3:00 AM72 °FPassing clouds.3 mph94%30.01 "HgN/A
2:00 AM75 °FPassing clouds.9 mph83%30.01 "HgN/A
1:00 AM75 °FPassing clouds.12 mph83%30.01 "HgN/A
12:00 AM75 °FPassing clouds.9 mph83%30.04 "HgN/A
11:00 PM
Fri, Mar 27
75 °FPassing clouds.10 mph74%30.04 "HgN/A
10:00 PM77 °FPassing clouds.12 mph69%30.01 "HgN/A
9:00 PM77 °FPassing clouds.10 mph74%30.01 "HgN/A
8:00 PM81 °FPassing clouds.13 mph62%29.98 "HgN/A
7:00 PM84 °FPassing clouds.14 mph55%29.95 "HgN/A
6:00 PM86 °FPassing clouds.12 mph52%29.95 "HgN/A
Weather by CustomWeather, © 2015

See weather overviewHow to use our weather pages